METEOR 2-11 DEB, 60007

Orbit data source: Space-Track

METEOR 2-11 DEB, 60007 is space debris in LEO originally from a launch on Thu, 05 Jul 1984 UTC launched from the Plesetsk Missile And Space Complex (PKMTR). Debris objects in space refer to the collection of defunct objects orbiting the Earth. Examples of debris include non-operational satellites, rocket bodies, and fragments generated from explosions, collisions, or faulty payload assembly.

Loading next visibility...
Identifier
60007, 1984-072AC
Orbit
LEO
Country
Flag of CISCIS
Related business
Manufacturer
Unknown
Mission
Spacecraft
Bus & Motor
Unknown
Mass
Unknown
Launch date (UTC)
1984-07-05 (42 years ago)
Launch vehicle
Unknown
Launch site
Plesetsk Missile And Space Complex (PKMTR)
Object type
Payload
Rocket body
Debris
Shape & HBR
Unknown shape, 1.1 m
Radar Cross Section
Small (<0.1 m²)

Expand to show TLE details & history
Last TLE update: 1 month ago

TLE from 1 month ago
0 METEOR 2-11 DEB
1 60007U 84072AC  26180.24990609  .00002296  00000-0  15225-2 0  9996
2 60007  82.5280 358.4652 0024562 270.1057  89.7298 14.00921836432224
Epoch: 2026-06-29T05:59Z
TLE epoch observation values (Epoch: 2026-06-29T05:59:51.886Z)
Latitude
Longitude
-8.83905°
Altitude
893.489 km
Speed
7.405 km/s
True Right ascension
23h 53m 51s
True Declination
0° 00' 00"
Sunlit
Object was in daylight at epoch
Visualization orbit readout
Latitude
Unknown
Longitude
Unknown
Altitude
Unknown
Speed
Unknown
Apparent Right ascension
Unknown
Apparent Declination
Unknown
Sunlit
N/A
Visualization observer readout
Local Sidereal Time
06:25:03
Azimuth
Unknown
Elevation
Unknown
Doppler factor
Unknown
Orbital elements
Apogee altitude
905.581 km
Perigee altitude
869.888 km
Semi-major axis
7,265.871 km
Eccentricity
0.00246
Inclination
82.528°
RAAN
358.4652°
Arg. of periapsis
270.1057°
True anomaly
90.01126°
Mean anomaly
89.7298°
Eccentric anomaly
89.87053°
Mean motion
3.50438 °/min
Orbital period
102.73 mins
BSTAR
0.0015225
Loading maneuver chart data...
Computing Atmospheric mass density...
Loading historical data...
Loading historical data...
Loading historical data...
Loading historical data...
Loading historical data...
Loading historical data...
Loading historical data...

Documentation

Showing up to 5 results
|